Regional Weather Roundup
Issued by NWS Wakefield, VA

Home | Current Version | Previous Version | Graphics & Text | Print | Product List | Glossary On
Versions: 1 2 3 4 5 6 7 8 9 10 11 12 13 14 15 16 17 18 19 20 21 22 23 24 25 26 27 28
000
ASUS41 KAKQ 232216
RWRAKQ

REGIONAL WEATHER ROUNDUP
NATIONAL WEATHER SERVICE WAKEFIELD VA
600 PM EDT SUN JUL 23 2017

Note: "fair" indicates few or no clouds below 12,000 feet with no
significant weather and/or obstructions to visibility. * = Denotes
station may not report precipitation (e.g., rain,snow,etc.),
thunder or fog.

VAZ042-051-052>054-056-232300-
NORTHERN VIRGINIA

CITY           SKY/WX    TMP DP  RH WIND       PRES   REMARKS
WASH NATIONAL  PTSUNNY   84  77  79 E3        29.78R
DULLES         PTSUNNY   76  67  73 N14G22    29.78R
FORT BELVOIR   MOSUNNY   85  75  72 SE3       29.77S
QUANTICO       LGT RAIN  87  79  76 S6        29.77S HX 101
FREDERICKSBRG* SUNNY     91  74  57 MISG      29.75F HX 100
STAFFORD*      SUNNY     90  74  59 SW3       29.80F HX  98
WARRENTON      SUNNY     88  69  52 CALM      29.76F
CULPEPER*      CLOUDY    90  71  52 W6        29.76F HX  96
MANASSAS*      CLOUDY    86  75  69 S5        29.77S HX  95
LEESBURG*      CLOUDY    73  73 100 SW5       29.79F
WINCHESTER     CLOUDY    82  68  61 NW7       29.77
FRONT ROYAL*   PTCLDY    86  68  54 W9        29.77F
LURAY*         PTCLDY    88  68  51 SW7       29.79F
$$

VAZ048-049-060>072-079>083-232300-
CENTRAL AND SOUTH CENTRAL VIRGINIA

CITY           SKY/WX    TMP DP  RH WIND       PRES   REMARKS
RICHMOND       MOSUNNY   95  67  39 W10G18    29.75F HX  99
CHESTERFIELD*  FAIR      95  70  44 NW8       29.76F HX 101
PETERSBURG*    SUNNY     94  62  34 CALM      29.77F
HANOVER        PTSUNNY   82  76  81 CALM      29.77F THUNDER
TAPPAHANNOCK*  MOSUNNY   91  64  40 S6        29.78F
QUINTON*       FAIR      90  71  54 N10G17    29.75F HX  96
CHARLOTTSVILLE PTSUNNY   93  68  43 VRB3      29.77F HX  97
GORDONSVILLE*  PTCLDY    91  69  49 W3        29.77F HX  95
ORANGE*        SUNNY     88  68  51 CALM      29.77F
LOUISA*        MOSUNNY   91  64  40 W6        29.77F
BUMPASS*       FAIR      90  70  50 CALM      29.77F HX  95
FARMVILLE*     SUNNY     95  55  25 W3        29.76F
CREWE*         FAIR      94  58  29 CALM      29.77F
FORT PICKETT*  FAIR     N/A N/A N/A W7        29.77F
CHASE CITY*    FAIR      94  68  42 W5        29.78F HX  98
CLARKSVILLE*   FAIR      95  68  41 W5        29.78F HX  99
SOUTH HILL*    SUNNY     95  68  41 W3        29.83F HX  99
LAWRENCEVILLE* FAIR      96  67  38 CALM      29.77F HX 100
EMPORIA*       CLOUDY    90  77  66 E12       29.79S THUNDER HX 102
$$

VAZ088>098-232300-
SOUTHEAST VIRGINIA

CITY           SKY/WX    TMP DP  RH WIND       PRES   REMARKS
NORFOLK        CLOUDY    87  76  69 S5        29.79S HX  97
VIRGINIA BEACH CLOUDY    82  71  69 S5        29.79R
NORFOLK NAVAL  CLOUDY    89  75  63 S5        29.80S HX  99
WEST POINT*    PTSUNNY   91  72  53 NE6       29.76F HX  99
SALUDA*        FAIR      85  77  75 NE8       29.77F HX  95
NEWPORT NEWS   CLOUDY    86  74  67 S5        29.77F
LANGLEY AFB    MOSUNNY   88  74  63 S7        29.78F HX  96
FORT EUSTIS    PTSUNNY   87  76  67 S7        29.75F HX  97
WILLIAMSBURG*  CLOUDY    90  75  62 CALM      29.78F HX 100
HR EXEC AP*    FAIR      84  77  79 S6        29.76R
FRANKLIN*      MOSUNNY   90  77  66 CALM      29.78S HX 102
US460-WAKEFLD  PTSUNNY   91  75  59 S3        29.77F HX 101
$$

VAZ020-022-025-037-045-232300-
WEST CENTRAL AND SOUTHWEST VIRGINIA

CITY           SKY/WX    TMP DP  RH WIND       PRES   REMARKS
STAUNTON*      MOSUNNY   88  63  43 W7        29.83F
WAYNESBORO*    CLOUDY    86  68  54 SW5       29.83F
HOT SPRINGS VA MOSUNNY   77  54  44 CALM      30.00F
LYNCHBURG      MOSUNNY   92  62  36 VRB6      29.81F
DANVILLE       SUNNY     93  70  46 CALM      29.79F HX  99
SOUTH BOSTON*  FAIR      94  67  41 W6        29.79F HX  97
MARTINSVILLE   CLOUDY    83  71  67 SW6       29.85R
ROANOKE        CLOUDY    92  62  36 CALM      29.84F
BLACKSBURG     CLOUDY    83  62  48 W3        29.93F
DUBLIN*        CLOUDY    85  54  34 W3        29.92F
MARION*        CLOUDY    84  66  55 W7        29.96F
HILLSVILLE*    CLOUDY    82  55  38 CALM      29.94S
RICHLANDS*     FAIR      82  65  57 CALM      29.95F
WISE*          PTSUNNY   88  63  42 W9        29.95F
ABINGDON*      CLOUDY    86  71  60 SW9       29.92S
$$

MDZ021>025-VAZ099-100-232300-
SOUTHERN MARYLAND AND THE DELMARVA PENINSULA

CITY           SKY/WX    TMP DP  RH WIND       PRES   REMARKS
PATUXENT RIVER CLOUDY    82  77  84 E6        29.77F
BAY BRIDGE APT LGT RAIN  79  75  89 W6        29.78R
LEONARDTOWN    CLOUDY    86  73  66 E3        29.79F
DOVER          MOSUNNY   77  77 100 SE5       29.77R
GEORGETOWN     CLOUDY    82  76  81 CALM      29.79R
EASTON         PTSUNNY   81  73  78 CALM      29.81R
CAMBRIDGE      MOSUNNY   81  73  78 VRB3      29.78S
SALISBURY      MOSUNNY   79  75  89 CALM      29.78F
OCEAN CITY     MOSUNNY   79  76  90 CALM      29.77F
WALLOPS ISLAND CLOUDY    85  76  74 SW5       29.78F
ACCOMACK*      CLOUDY    78  75  92 CALM      29.78F
$$

NCZ012>017-030>032-232300-
NORTH CENTRAL AND EASTERN NORTH CAROLINA

CITY           SKY/WX    TMP DP  RH WIND       PRES   REMARKS
ROANOKE RAPIDS FAIR      90  79  70 CALM      29.75F HX 105
RALEIGH        TSTM      81  74  79 W15G32    29.82R VSB 1
ELIZABETH CITY CLOUDY    81  76  84 E7        29.79R
AHOSKIE*         N/A     85  80  85 N3        29.77F HX 100
EDENTON*       CLOUDY    94  79  61 SW13      29.79R HX 112
CURRITUCK*     CLOUDY    77  77 100 CALM      29.81R
KILL DEVIL HLS LGT RAIN  73  70  89 SE5G16    29.81F
MANTEO         LGT RAIN  78  74  88 S15G22    29.82F
CAPE HATTERAS  SUNNY     83  76  79 SW14G21   29.86S
TARBORO*       NOT AVBL
GOLDSBORO      MOSUNNY   93  77  58 S9        29.77  HX 106
WASHINGTON     SUNNY     93  77  58 SW12      29.79F HX 107
GREENVILLE     SUNNY     95  73  49 S16G23    29.80F HX 105
NEW BERN       SUNNY     88  77  69 S15G24    29.84F HX 100
WILMINGTON     MOSUNNY   87  77  72 SW15G22   29.85F HX  99
$$

VAZ048-232300-
ELSEWHERE

CITY           SKY/WX    TMP DP  RH WIND       PRES   REMARKS
HARRISBURG PA  TSTM      73  72  96 VRB7G20   29.75R VSB 1/2
BALTIMORE      HVY RAIN  74  73  97 W10       29.78R FOG
ANNAPOLIS      LGT RAIN  79  79 100 NW6       29.76R
ANDREWS AFB    MOSUNNY   83  74  73 W3        29.77S
PHILADELPHIA   LGT RAIN  83  69  62 SE12      29.77F
HENDERSON NC   MOSUNNY   92  65  41 N5        29.79F
GREENSBORO     TSTM      71  69  93 S12       29.85F
ROCKY MOUNT    SUNNY     93  76  57 S12       29.75F HX 105
$$

VAZ100-232300-
MARINE

STATION/POSITION TIME  TEMP    WIND        PRES    WAVE   SWELL
                       AIR SEA DIR/SP/G            HT/PER HT/PER
                 (UTC) (F)     (DEG/KT/KT) (MB)    (FT/S) (FT/S)
BRANDYWINE LGT   2148          130/ 14/ 17 1009.0R
CAPE MAY NJ      2148   76 77  110/ 10/ 12 1008.3F
LEWES DE         2148   76 75   70/  5/  7 1009.0R
15NM E FENWICK I 2150   80 78  120/  6/  8 1009.0F   3/ 7   3/ 7
OCEAN-CITY-INLET 2148   76 73  240/  3/  4 1008.5F
WACHAPREAGUE VA  2148   80 88   CALM  /  1 1008.6F
THOMAS POINT MD  2200   80 83  280/  6/  7   N/A
COVE POINT MD    2148   79     150/  5/  6 1009.1F
SOLOMONS ISLAND  2148   81 85   80/  5/  6   N/A
BISHOPS HEAD MD  2148   81 86   50/  3/  4 1008.6F
PINEY POINT MD   2148          130/  1/  2   N/A
CAMBRIDGE MD     2148   82 88              1009.3R
LEWISETTA VA     2148   83 85  110/ 10/ 11 1008.0F
RAPPAHANNOCK LGT 2148           40/  5/  6 1009.0F
YORK RVR RNG VA  2148   84     210/  6/  6 1008.4F
YORKTOWN VA      2148   86 84  220/  7/ 10 1007.6F
DOMINION TERM VA 2148   86     240/  1/  2 1008.6F
KIPTOPEKE VA     2148      83  170/  5/  6   N/A
CHES BAY BRIDGE  2148   85 83  230/  1/  2 1008.6F
CAPE HENRY VA    2148   85     180/  5/  6   N/A
WILLOUBY STN VA  2148   85     280/  4/  4 1008.6F
S CRANEY ISL VA  2148   88     220/  2/  4 1008.4F
CAPE HENRY BUOY  2200      74                N/A     2/ 6
64NM E OF VA BCH 2150   80 81  230/ 14/ 17 1009.5F   4/ 6   2/10
DUCK PIER NC     2148   69 60  150/ 15/ 16 1009.2R
44100 DUCK FRF   2105      73                N/A     3/ 7
44056 DUCK FRF   2200      63                N/A     2/10
OREGON INLET NC  2148           90/  4/  7 1011.2R
HATTERAS NC      2148   81 78  210/ 12/ 18 1011.0F
DIAMOND SHLS NC  2150   84 84  220/ 23/ 27 1011.0F   7/ 7   2/ 9
CAPE LOOKOUT NC  2200   84     220/ 11/ 16 1011.0F
$$




USA.gov is the U.S. government's official web portal to all federal, state and local government web resources and services.